SCOUT G-1 DEB

基本信息
目录编号:
19077
目录名称:
SCOUT G-1 DEB
国际标识:
1988-033D
轨道中心:
EARTH
物体状态:
在轨
发射日期:
1988-04-26 UTC
轨道信息
数据来源: 国际轨道数据
星历时间: 2026-07-13T17:16:27+0800
半长轴: 7452.24km
偏心率: 0.0173324
轨道倾角: 90.284°
近地点辐角: 203.875°
升交点赤经: 352.971°
平近点角: 184.065°
近地点: 944.937km
远地点: 1203.269km
周期: 106.706分钟
每日圈数: 13.494989
详细信息
发射场:
AFWTR
轨道高度:
LEO
数据来源:
AOE Integration Group
参考系:
TEME
时间系统:
UTC
历元类型:
SGP4
2D轨道图
3D轨道图
轨道高度分析图
轨道倾角分析图
轨道综合分析图
查看轨道综合分析图